Погода в Будогощи

Россия / Санкт-Петербург и Ленинградская область     59°17′08″N   32°26′46″E
темп.,
°C
ветер,
м/с
пор.,
м/с
влажн.,
%
обл.,
%
осадки,
мм/ч
давл.,
гПа
погр.,
м
4 марта, чт
чт400:00+1з51297100 3.0 1000942
03:00−1сз31082100 3.3 1001882
06:00−4зсз4109028 0.1 1001545
09:00−4сз388948 0.1 1001531
12:00−3сз358097 0.0 1002644
15:00−3сз357899 0.1 1002762
18:00−4сз3785100 0.1 1003729
21:00−5сз399097 0.1 1003684
5 марта, пт
пт500:00−5зсз379497 0.2 1004506
03:00−7зсз279697 0.3 1006349
06:00−7зсз369399 0.1 1006433
09:00−7сз359099 0.3 1008424
12:00−5сз3481100 0.1 1010633
15:00−4сз3577100 0.3 1011761
18:00−6ссз368199 0.2 1013540
21:00−8ссз249389 0.2 1015143
6 марта, сб
сб600:00−9сз239776 0.0 1016109
03:00−10зсз229753 0.0 101756
06:00−9з259786 0.1 1017211
09:00−9з259385 0.1 1017239
12:00−5зюз357131 0.0 1015634
15:00−3юз596426 0.0 10121129
18:00−4ююз61476100 0.0 10071197
21:00−3юз81692100 1.9 10011417
7 марта, вс
вс700:00−2юз71593100 2.4 9951225
03:00−2зюз61495100 4.1 9921137
06:00−6зсз3892100 2.5 991605
09:00−7зсз4117097 3.1 9921698
12:00−6зюз597332 0.1 9931261
15:00−4юз587466 0.6 9911198
18:00−6з2388100 0.9 989100
21:00−8ссз41189100 1.0 991780
8 марта, пн
пн800:00−10ссз61183100 0.3 995702
03:00−11ссз4119271 0.3 998562
06:00−12ссз51188100 0.1 1001761
09:00−12ссз51087100 0.1 1004650
12:00−12ссз5883100 0.1 1007744
15:00−12ссз5882100 0.2 1010744
18:00−13ссз4988100 0.1 1012740
21:00−13с4991100 0.2 1016697